Wind_Speed
11 13 15 14 14 14 15 16 17 21 24 22 21 21 23 29 33 31 31 31 32 31 29 28 26 25 24 24 25 27 27 27 27 27 27 27 28 28
10 12 12 12 11 10 13 17 19 20 26 27 26 24 27 29 28 30 30 29 29 28 27 27 27 24 24 25 26 26 26 27 27 26 27 28 28 29
11 12 13 13 13 13 16 18 20 21 26 29 28 28 29 28 29 28 27 27 27 25 25 26 27 27 28 29 29 26 25 27 27 27 28 28 29 28
14 15 14 14 16 17 19 19 20 22 23 29 31 29 28 28 28 29 27 25 27 26 26 25 24 21 21 24 25 28 28 29 29 28 29 27 29 27
15 17 16 16 17 19 18 19 20 21 23 26 28 28 30 28 29 28 28 29 27 24 17 14 15 20 21 22 24 26 29 28 28 28 28 26 25 25
18 20 19 18 19 19 19 20 21 22 23 23 25 27 28 29 27 29 30 28 28 20 14 15 17 20 22 22 23 23 21 24 26 27 26 25 21 23
21 22 20 20 19 20 20 21 23 23 21 21 24 27 28 29 26 26 28 29 26 18 21 20 18 20 18 18 20 19 19 22 25 25 24 21 22 23
23 23 20 21 21 21 21 23 24 22 20 21 24 26 27 25 24 25 26 26 24 22 29 26 22 19 20 21 19 18 20 22 24 22 17 18 18 22
23 24 22 22 22 22 23 23 24 21 21 22 25 25 24 21 22 24 25 25 25 28 28 30 21 24 24 23 18 13 10 13 15 18 21 19 22 26
23 23 24 24 23 22 22 23 22 21 21 22 24 21 19 19 20 22 26 28 28 26 23 28 21 27 27 26 15 13 11 15 18 22 25 26 26 26
20 22 24 24 22 22 22 22 22 22 20 22 20 18 17 17 18 21 24 25 30 29 21 16 25 29 29 23 13 13 14 19 21 24 25 27 28 28
22 23 25 24 23 22 23 22 23 20 19 20 17 16 16 17 18 19 21 22 25 26 15 26 27 25 29 28 23 19 16 19 21 21 25 24 23 25
26 27 26 25 25 24 24 24 22 18 19 18 17 17 15 15 17 18 19 19 21 23 21 21 28 26 24 31 30 24 16 17 20 20 18 16 18 22
30 28 28 26 29 27 27 26 22 20 20 19 18 17 16 16 18 19 19 18 17 20 20 17 23 22 25 28 28 26 22 16 19 19 19 15 17 19
28 29 29 32 31 32 30 28 25 22 22 21 21 19 16 17 19 20 19 18 17 15 14 15 15 20 21 23 23 24 24 16 16 24 26 14 13 8
29 29 27 27 30 32 32 32 30 25 22 22 22 19 17 16 18 20 20 18 19 16 9 10 13 17 21 19 16 18 16 17 18 21 24 23 7 2
28 28 30 30 29 28 30 31 34 27 24 22 22 20 17 16 16 18 17 17 17 19 19 14 12 13 13 16 13 14 14 9 11 14 17 24 17 11
35 31 30 31 30 27 26 27 32 30 25 24 22 21 18 16 14 15 15 15 16 16 17 17 17 14 8 7 9 13 11 7 10 10 12 19 24 24
39 37 31 30 30 27 26 28 24 26 26 25 23 22 18 16 13 13 14 15 14 14 13 14 14 13 13 12 5 9 12 8 8 7 8 13 17 20
30 31 31 31 27 25 27 29 26 26 24 24 23 22 19 17 13 12 13 14 14 13 13 11 9 11 12 11 12 8 10 8 7 6 6 6 9 11
30 30 31 28 24 23 23 26 25 25 22 23 23 23 21 19 13 11 12 13 13 11 12 10 8 10 9 6 7 6 6 7 7 6 7 5 6 7
31 32 35 28 23 23 23 22 22 23 22 24 23 22 22 19 14 11 11 11 10 9 10 9 6 6 5 6 5 2 1 4 6 7 9 11 10 7
15 13 19 17 17 16 18 21 23 23 22 24 23 21 21 20 14 11 11 10 10 8 8 6 5 3 5 6 3 3 3 2 1 3 5 8 9 9
Wind_Direction
301 312 304 297 290 282 282 298 299 297 300 304 302 302 300 304 305 305 305 306 304 302 299 296 293 293 291 285 280 279 279 280 281 283 284 282 281 274
306 308 306 303 297 296 298 300 300 299 292 301 303 301 303 307 308 308 309 308 305 302 297 293 294 292 286 285 283 283 279 277 280 282 284 282 282 275
305 310 312 309 308 300 302 293 288 289 289 297 300 303 305 309 310 311 311 308 306 303 298 298 294 290 287 283 280 280 276 274 276 278 283 286 277 271
292 305 309 308 304 301 300 292 287 289 287 295 300 304 308 313 314 312 314 312 310 305 300 298 298 301 306 303 293 273 271 274 276 281 287 287 277 268
294 289 303 302 290 291 293 296 296 291 293 296 301 307 313 317 315 315 317 319 320 324 314 306 305 310 309 311 305 293 274 274 277 281 287 280 280 264
293 283 286 299 289 286 292 297 296 295 297 295 299 307 312 317 316 319 320 324 322 325 316 312 318 313 311 308 307 305 286 274 278 281 285 285 269 264
285 277 280 294 296 284 290 296 297 297 294 295 301 307 312 315 319 321 320 323 323 331 328 325 325 326 329 314 312 306 289 276 278 281 286 275 263 265
278 273 273 288 291 283 290 295 296 295 292 294 302 307 310 311 316 321 324 327 323 328 326 321 330 329 336 326 313 306 300 287 280 280 272 280 273 269
273 268 271 281 287 284 291 294 298 293 292 297 302 307 304 312 317 323 325 320 311 313 318 314 327 320 329 330 314 304 316 314 295 278 276 281 273 274
268 264 273 276 283 282 288 294 298 289 289 291 299 301 303 311 316 316 320 317 313 316 323 312 327 324 329 331 315 282 314 316 306 289 286 279 283 286
267 269 273 275 284 282 282 293 295 287 286 291 296 299 304 307 308 309 320 319 319 320 330 316 323 326 331 343 341 285 294 309 304 300 293 285 281 286
268 271 272 278 279 278 278 289 292 294 284 291 290 293 295 297 301 309 317 315 316 319 316 320 320 331 325 328 326 324 300 294 304 307 303 285 281 283
268 269 272 275 276 274 274 278 292 288 282 287 289 291 292 298 307 311 315 317 312 302 322 318 312 319 320 316 322 332 322 305 309 308 308 290 278 283
268 266 272 277 279 267 264 272 279 280 279 283 283 290 292 300 310 314 317 319 309 305 315 306 299 312 318 319 314 328 320 305 306 315 345 312 280 287
271 269 270 271 270 280 260 259 262 269 274 279 281 288 291 300 310 316 317 319 313 308 302 299 291 298 312 316 312 322 328 313 322 344 352 346 316 272
280 276 272 272 272 268 272 261 251 261 264 272 276 281 285 295 309 317 316 321 322 326 317 293 293 297 304 313 320 323 323 315 327 339 358 16 350 200
281 273 269 269 273 274 270 273 255 255 259 266 272 272 279 289 305 314 311 317 321 326 327 322 304 302 299 306 322 343 336 334 334 355 10 18 58 71
272 265 269 269 272 273 278 281 263 255 261 262 263 263 268 277 297 312 308 314 319 324 328 330 328 324 303 291 305 340 353 354 360 15 26 27 39 60
291 270 260 267 268 272 276 276 273 269 266 257 254 255 256 265 285 304 307 310 317 321 331 333 336 340 337 331 317 350 349 350 9 23 37 51 48 48
294 279 259 265 268 271 276 279 278 276 260 252 250 249 245 256 269 293 303 306 312 322 330 339 340 340 329 322 316 359 357 356 356 30 53 55 64 60
291 290 268 266 273 273 272 276 287 276 254 249 248 245 238 248 259 282 296 302 304 315 324 335 340 348 341 314 316 341 0 27 27 39 19 59 85 80
299 298 271 261 270 273 274 277 277 274 251 243 247 241 232 242 249 267 284 296 296 303 315 328 337 350 12 6 320 309 162 81 59 49 31 56 70 88
308 307 270 277 274 283 282 285 281 270 256 240 245 238 228 233 240 251 269 286 288 293 306 321 330 320 3 13 36 100 109 131 116 56 63 63 58 79
Height
1538 1536 1535 1535 1533 1532 1531 1529 1528 1525 1522 1522 1522 1521 1518 1515 1511 1505 1501 1497 1492 1488 1484 1481 1477 1475 1473 1471 1469 1468 1467 1465 1463 1462 1461 1459 1458 1458
1533 1532 1531 1530 1529 1527 1526 1526 1524 1522 1518 1517 1516 1514 1511 1508 1504 1499 1494 1490 1485 1481 1477 1473 1470 1468 1466 1462 1460 1458 1457 1456 1455 1454 1452 1451 1450 1449
1529 1528 1527 1526 1525 1523 1522 1520 1519 1518 1514 1511 1510 1508 1504 1501 1497 1493 1489 1483 1479 1474 1470 1467 1463 1460 1456 1453 1451 1449 1448 1447 1446 1446 1444 1443 1442 1441
1525 1524 1522 1521 1520 1519 1517 1516 1514 1512 1509 1505 1503 1500 1498 1494 1490 1485 1482 1477 1472 1468 1463 1459 1455 1452 1449 1445 1442 1440 1439 1438 1437 1437 1435 1433 1432 1432
1519 1518 1517 1516 1515 1514 1512 1510 1508 1506 1503 1500 1496 1493 1490 1487 1483 1479 1474 1470 1465 1460 1456 1453 1450 1447 1443 1439 1435 1432 1430 1430 1430 1429 1427 1425 1424 1423
1514 1514 1513 1511 1510 1508 1506 1504 1502 1500 1497 1494 1491 1488 1484 1481 1477 1472 1467 1464 1458 1455 1452 1449 1445 1441 1437 1433 1429 1426 1423 1423 1422 1421 1420 1418 1418 1417
1508 1508 1507 1506 1504 1502 1500 1499 1496 1494 1491 1489 1486 1483 1479 1475 1471 1468 1463 1457 1453 1450 1446 1443 1440 1436 1432 1428 1424 1421 1419 1417 1415 1414 1413 1411 1411 1411
1501 1501 1501 1500 1498 1496 1495 1492 1490 1487 1486 1483 1481 1477 1474 1471 1467 1463 1459 1453 1448 1446 1441 1435 1436 1431 1428 1424 1420 1416 1413 1411 1409 1408 1407 1405 1404 1404
1494 1494 1494 1494 1492 1490 1489 1486 1484 1482 1480 1478 1475 1473 1469 1466 1462 1459 1455 1451 1447 1443 1440 1431 1431 1426 1424 1419 1415 1412 1409 1406 1404 1403 1401 1400 1399 1397
1487 1487 1487 1487 1486 1484 1482 1480 1478 1476 1475 1473 1470 1467 1465 1462 1459 1455 1451 1446 1442 1439 1437 1429 1427 1422 1418 1414 1409 1407 1406 1403 1401 1399 1396 1394 1392 1389
1481 1481 1481 1480 1479 1478 1476 1474 1472 1471 1470 1467 1465 1462 1460 1458 1456 1452 1448 1443 1436 1433 1432 1428 1423 1418 1413 1409 1406 1404 1402 1400 1397 1393 1390 1387 1384 1382
1474 1474 1473 1473 1472 1471 1469 1468 1466 1466 1464 1462 1460 1458 1457 1455 1452 1449 1445 1440 1435 1429 1429 1426 1420 1418 1409 1404 1403 1401 1398 1395 1392 1388 1384 1380 1377 1375
1466 1466 1466 1465 1464 1463 1462 1461 1460 1460 1458 1456 1455 1454 1452 1450 1447 1444 1441 1437 1432 1429 1426 1424 1416 1415 1412 1404 1397 1397 1393 1390 1387 1383 1378 1373 1371 1369
1457 1457 1458 1458 1456 1454 1454 1454 1454 1453 1451 1450 1449 1448 1447 1445 1442 1439 1435 1432 1429 1425 1422 1421 1415 1413 1409 1402 1397 1393 1390 1386 1383 1379 1372 1367 1364 1362
1448 1448 1448 1448 1447 1445 1444 1445 1445 1444 1444 1443 1442 1442 1441 1439 1437 1433 1430 1427 1424 1422 1419 1416 1413 1410 1407 1401 1397 1392 1386 1382 1379 1374 1368 1363 1357 1355
1440 1438 1438 1437 1436 1435 1435 1435 1435 1435 1436 1436 1436 1436 1436 1434 1432 1428 1425 1422 1419 1417 1415 1412 1410 1407 1402 1399 1395 1391 1387 1382 1379 1374 1367 1361 1354 1353
1431 1429 1428 1427 1426 1425 1425 1425 1426 1427 1427 1428 1429 1429 1429 1429 1427 1424 1421 1418 1415 1412 1409 1407 1405 1402 1400 1396 1394 1390 1385 1382 1379 1375 1370 1364 1357 1355
1419 1416 1416 1417 1417 1417 1416 1416 1416 1418 1419 1420 1421 1422 1423 1423 1422 1420 1417 1414 1412 1410 1407 1403 1399 1397 1395 1394 1392 1389 1386 1383 1380 1377 1374 1370 1364 1362
1407 1405 1404 1406 1408 1408 1408 1409 1408 1410 1411 1412 1413 1415 1416 1417 1417 1415 1413 1411 1409 1407 1405 1402 1398 1396 1393 1392 1391 1389 1386 1384 1382 1379 1377 1375 1372 1369
1398 1395 1395 1397 1398 1399 1400 1400 1401 1401 1402 1404 1405 1407 1409 1411 1411 1411 1409 1407 1406 1404 1402 1400 1398 1395 1393 1392 1390 1389 1387 1384 1383 1381 1380 1379 1377 1375
1389 1388 1387 1387 1388 1390 1391 1391 1392 1392 1394 1396 1398 1400 1402 1404 1405 1406 1405 1403 1402 1401 1399 1398 1396 1394 1392 1391 1390 1388 1387 1386 1384 1382 1381 1380 1380 1379
1382 1379 1378 1379 1380 1382 1383 1383 1384 1384 1385 1388 1390 1392 1395 1398 1399 1401 1401 1400 1399 1398 1397 1396 1395 1394 1392 1391 1389 1388 1388 1387 1386 1385 1384 1382 1382 1382
1374 1370 1372 1372 1374 1375 1376 1376 1376 1377 1377 1380 1382 1385 1388 1391 1394 1395 1396 1396 1396 1395 1394 1394 1393 1392 1392 1390 1389 1388 1388 1388 1388 1387 1387 1385 1384 1385